Dundee, United Kingdom

8:15 AM BST on August 23, 2017 (GMT +0100)
Dundee

Weather History for EGPN - April, 2014

Change the Weather History Date:

Sunday, April 6, 2014

  Actual Average Record
Temperature  
Mean Temperature 54 °F -  
Max Temperature 57 °F 52 °F 62 °F (2011)
Min Temperature 50 °F 43 °F 30 °F (2013)
Degree Days  
Heating Degree Days 12    
Growing Degree Days 4 (Base 50)    
Moisture  
Dew Point 49 °F    
Average Humidity 81    
Maximum Humidity 88    
Minimum Humidity 71    
Precipitation  
Precipitation 0.00 in - - ()
Sea Level Pressure  
Sea Level Pressure 29.48 in    
Wind  
Wind Speed 12 mph ()    
Max Wind Speed 26 mph    
Max Gust Speed 34 mph    
Visibility 6.2 miles    
Events Rain    
Averages and records for this station are not official NWS values.
T = Trace of Precipitation, MM = Missing Value Source: Averaged Metar Reports

Daily Weather History Graph

Daily Weather History Graph

Search for Another Location

Airport or City:

Trip Planner

Search our weather history database for the weather conditions in past years. The results will help you decide how hot, cold, wet, or windy it might be!

Date:

Astronomy

Apr. 06, 2014 Rise Set
Actual Time 6:29 AM BST 8:01 PM BST
Civil Twilight 5:50 AM BST 8:40 PM BST
Nautical Twilight 5:01 AM BST 9:29 PM BST
Astronomical Twilight 4:06 AM BST 10:25 PM BST
Moon 10:39 AM BST (4/6) 2:24 AM BST (4/6)
Length of Visible Light 14h 50m
Length of Day
13h 31m
Waxing Crescent, 41% of the Moon is Illuminated
Apr 6
Waxing Crescent
Apr 7
First Quarter
Apr 15
Full
Apr 22
Last Quarter
Apr 29
New

Hourly Weather History & Observations

Time (BST) Temp. Dew Point Humidity Pressure Visibility Wind Dir Wind Speed Gust Speed Precip Events Conditions
9:20 AM 51.8 °F 48.2 °F 88% 29.50 in 6.2 mi SW 8.1 mph - N/A   Mostly Cloudy
9:50 AM 53.6 °F 50.0 °F 88% 29.50 in 6.2 mi South 1.2 mph - N/A   Mostly Cloudy
10:20 AM 53.6 °F 50.0 °F 88% 29.50 in 6.2 mi SW 2.3 mph - N/A   Mostly Cloudy
10:50 AM 55.4 °F 51.8 °F 88% 29.50 in 6.2 mi ESE 1.2 mph - N/A   Mostly Cloudy
11:20 AM 55.4 °F 50.0 °F 82% 29.47 in 6.2 mi South 11.5 mph - N/A   Scattered Clouds
11:50 AM 55.4 °F 50.0 °F 82% 29.47 in 6.2 mi South 9.2 mph - N/A   Scattered Clouds
12:20 PM 57.2 °F 50.0 °F 77% 29.47 in 6.2 mi SSW 17.3 mph 28.8 mph N/A   Scattered Clouds
12:50 PM 55.4 °F 50.0 °F 82% 29.47 in 6.2 mi SSW 18.4 mph - N/A   Scattered Clouds
1:20 PM 57.2 °F 51.8 °F 82% 29.47 in 6.2 mi South 13.8 mph - N/A   Scattered Clouds
1:50 PM 57.2 °F 50.0 °F 77% 29.44 in 6.2 mi South 15.0 mph - N/A   Mostly Cloudy
2:20 PM 57.2 °F 51.8 °F 82% 29.44 in 6.2 mi SSW 13.8 mph - N/A   Mostly Cloudy
2:50 PM 50.0 °F 44.6 °F 82% 29.47 in 6.2 mi SSW 20.7 mph 34.5 mph N/A   Mostly Cloudy
3:20 PM 55.4 °F 50.0 °F 82% 29.44 in 6.2 mi SSW 25.3 mph - N/A   Mostly Cloudy
3:50 PM 55.4 °F 50.0 °F 82% 29.44 in 6.2 mi SSW 25.3 mph - N/A   Mostly Cloudy
4:20 PM 55.4 °F 50.0 °F 82% 29.44 in 6.2 mi SW 25.3 mph - N/A   Mostly Cloudy
4:50 PM 53.6 °F 50.0 °F 88% 29.47 in 6.2 mi WSW 26.5 mph - N/A Rain Light Rain Showers
5:20 PM 55.4 °F 48.2 °F 77% 29.47 in 6.2 mi WSW 24.2 mph - N/A   Scattered Clouds
5:50 PM 53.6 °F 48.2 °F 82% 29.50 in 6.2 mi West 18.4 mph - N/A   Scattered Clouds
6:20 PM 53.6 °F 46.4 °F 77% 29.50 in 6.2 mi WSW 18.4 mph - N/A   Scattered Clouds
6:50 PM 53.6 °F 46.4 °F 77% 29.50 in 6.2 mi WSW 19.6 mph - N/A   Scattered Clouds
7:20 PM 53.6 °F 44.6 °F 72% 29.53 in 6.2 mi WSW 23.0 mph - N/A   Partly Cloudy
7:50 PM 51.8 °F 42.8 °F 71% 29.53 in 6.2 mi WSW 23.0 mph - N/A   Partly Cloudy
8:20 PM 51.8 °F 44.6 °F 76% 29.56 in 6.2 mi WSW 18.4 mph - N/A   Partly Cloudy